Regional Weather Roundup
Issued by NWS State College, PA

Home | Current Version | Previous Version | Graphics & Text | Print | Product List | Glossary Off
Versions: 1 2 3 4 5 6 7 8 9 10 11 12 13 14 15 16 17 18 19 20 21 22 23 24 25 26 27 28 29 30 31 32 33 34 35 36 37 38 39 40 41 42 43 44 45 46 47 48 49 50

000
ASUS41 KCTP 030010
RWRCTP

REGIONAL WEATHER ROUNDUP
NATIONAL WEATHER SERVICE STATE COLLEGE PA
800 PM EDT MON MAY 02 2016

Note: "fair" indicates few or no clouds below 12,000 feet with no
significant weather and/or obstructions to visibility.

* = STATION THAT DOES NOT REPORT PRECIPITATION /E.G. RAIN...SNOW...ETC/
    THUNDER OR FOG.

PAZ002>004-007>009-013>016-020>023-029>032-030100-
WESTERN PENNSYLVANIA

CITY           SKY/WX    TMP DP  RH WIND       PRES   REMARKS
ERIE           CLOUDY    47  42  83 NE5       29.98S
MEADVILLE      CLOUDY    45  42  89 N6        29.95F
FRANKLIN*      CLOUDY    48  43  81 N5        29.97S
NEW CASTLE     CLOUDY    50  45  83 N8        29.96S
BEAVER COUNTY  CLOUDY    52  46  82 N5        29.95R
BUTLER*        CLOUDY    54  46  76 W5        29.96F
PITTSBURGH INT LGT RAIN  57  48  72 N5        29.92F
PITTSBURGH     LGT RAIN  57  50  77 NW6       29.90F
INDIANA*       CLOUDY    61  50  67 N3        29.95R
LATROBE        LGT RAIN  61  54  77 CALM      29.94R
WASHINGTON CO* CLOUDY    55  50  82 N7        29.92F
$$

PAZ004>006-010>012-017>019-024>028-033>037-041-042-045-046-049>053-030100-
CENTRAL PENNSYLVANIA

CITY           SKY/WX    TMP DP  RH WIND       PRES   REMARKS
BRADFORD       CLOUDY    49  45  86 N8        29.94R
DUBOIS         CLOUDY    56  47  71 N6        29.92R
CLEARFIELD     CLOUDY    61  47  59 NW5       29.91R
JOHNSTOWN      CLOUDY    59  45  59 W7        29.93R
ALTOONA        CLOUDY    64  50  60 N7        29.90R
STATE COLLEGE  PTCLDY    64  48  55 W7        29.89R
WILLIAMSPORT   CLOUDY    59  48  67 VRB3      29.90S
SELINSGROVE    PTCLDY    63  54  72 NE5       29.88S
FT INDIANTOWN  PTCLDY    59  59 100 NE3       29.87F
CAPITAL CITY   CLOUDY    63  56  78 E8        29.87R HAZE
HARRISBURG     CLOUDY    63  57  81 E3        29.86R HAZE
YORK           MOCLDY    65  60  84 NE10      29.84S
$$

PAZ038>040-043-044-047-048-054-055-060>062-067>071-030100-
EASTERN PENNSYLVANIA

CITY           SKY/WX    TMP DP  RH WIND       PRES   REMARKS
SCRANTON       CLOUDY    56  48  74 N7        29.91F
MOUNT POCONO   CLOUDY    52  46  80 NW5       29.94R
ALLENTOWN      CLOUDY    60  53  77 CALM      29.91R
QUAKERTOWN*    PTCLDY    57  55  94 CALM      29.94R
READING        CLOUDY    63  55  75 CALM      29.90R
LANCASTER      CLOUDY    62  57  83 NE10      29.87R
COATESVILLE    PTCLDY    61  61 100 E6        29.92S
POTTSTOWN      MOCLDY    59  55  87 NE3       29.92R FOG
BLUE BELL      PTCLDY    55  54  94 CALM      29.91R
DOYLESTOWN     CLEAR     57  54  89 CALM      29.93R
WILLOW GROVE   NOT AVBL
NORTH PHILA    PTCLDY    61  54  77 NE5       29.94R
PHILADELPHIA   MOCLDY    62  54  74 NE7       29.92R
$$




USA.gov is the U.S. government's official web portal to all federal, state and local government web resources and services.